| time (UTC) | temp F | wind direction | speed knots | gust knots | rain 1hr in | rain 24hr in | rain mn in | humidity % | barometer mb |
| 20260505092900 | 53 | 91 | 0.9 | 2.6 | 0.00 | 0.00 | 0.00 | 79 | 1007.0 |
| 20260505092400 | 53 | 79 | 0.9 | 2.6 | 0.00 | 0.00 | 0.00 | 79 | 1007.0 |
| 20260505091900 | 53 | 74 | 0.9 | 1.7 | 0.00 | 0.00 | 0.00 | 78 | 1007.0 |
| 20260505091611 | 54 | 84 | 0.9 | 1.7 | 0.00 | 0.00 | 0.00 | 78 | 1007.0 |
| 20260505090848 | 54 | 62 | 0.9 | 1.7 | 0.00 | 0.00 | 0.00 | 77 | 1006.9 |
| 20260505090342 | 55 | 57 | 0.9 | 1.7 | 0.00 | 0.00 | 0.00 | 76 | 1006.8 |
| 20260505090323 | 55 | 57 | 0.9 | 1.7 | 0.00 | 0.00 | 0.00 | 76 | 1006.8 |
| 20260505085331 | 55 | 57 | 0.9 | 1.7 | 0.00 | 0.00 | 0.00 | 76 | 1006.8 |
| 20260505084825 | 55 | 57 | 0.9 | 1.7 | 0.00 | 0.00 | 0.00 | 76 | 1006.8 |
| 20260505084319 | 55 | 66 | 0.9 | 1.7 | 0.00 | 0.00 | 0.00 | 76 | 1006.7 |
| 20260505084031 | 56 | 95 | 0.9 | 1.7 | 0.00 | 0.00 | 0.00 | 75 | 1006.7 |
| 20260505083307 | 56 | 66 | 0.9 | 2.6 | 0.00 | 0.00 | 0.00 | 75 | 1006.7 |
| 20260505082801 | 56 | 74 | 0.9 | 2.6 | 0.00 | 0.00 | 0.00 | 75 | 1006.6 |
| 20260505082254 | 56 | 89 | 1.7 | 2.6 | 0.00 | 0.00 | 0.00 | 75 | 1006.7 |
| 20260505081749 | 56 | 85 | 1.7 | 3.5 | 0.00 | 0.00 | 0.00 | 76 | 1006.7 |
| 20260505081242 | 55 | 94 | 1.7 | 5.2 | 0.00 | 0.00 | 0.00 | 77 | 1006.6 |
| 20260505080736 | 55 | 101 | 1.7 | 5.2 | 0.00 | 0.00 | 0.00 | 78 | 1006.5 |
| 20260505080230 | 54 | 109 | 1.7 | 4.3 | 0.00 | 0.00 | 0.00 | 79 | 1006.4 |
| 20260505075725 | 54 | 162 | 0.9 | 4.3 | 0.00 | 0.00 | 0.00 | 79 | 1006.3 |
| 20260505075219 | 54 | 203 | 0.0 | 4.3 | 0.00 | 0.00 | 0.00 | 79 | 1006.4 |
| 20260505074712 | 54 | 199 | 0.0 | 0.9 | 0.00 | 0.00 | 0.00 | 79 | 1006.4 |
| 20260505074207 | 54 | 199 | 0.0 | 1.7 | 0.00 | 0.00 | 0.00 | 79 | 1006.4 |
| 20260505073701 | 54 | 199 | 0.0 | 1.7 | 0.00 | 0.00 | 0.00 | 80 | 1006.2 |
| 20260505073155 | 54 | 77 | 0.0 | 0.0 | 0.00 | 0.00 | 0.00 | 79 | 1006.1 |
| 20260505072649 | 54 | 77 | 0.0 | 0.0 | 0.00 | 0.00 | 0.00 | 79 | 1006.0 |
| 20260505072143 | 55 | 77 | 0.0 | 0.0 | 0.00 | 0.00 | 0.00 | 79 | 1005.9 |
| 20260505071636 | 55 | 71 | 0.0 | 0.0 | 0.00 | 0.00 | 0.00 | 79 | 1005.8 |
| 20260505071130 | 55 | 76 | 0.0 | 0.0 | 0.00 | 0.00 | 0.00 | 78 | 1005.8 |
| 20260505070625 | 55 | 76 | 0.0 | 0.0 | 0.00 | 0.00 | 0.00 | 78 | 1005.9 |
| 20260505070118 | 55 | 76 | 0.0 | 0.0 | 0.00 | 0.00 | 0.00 | 77 | 1005.7 |
| 20260505065613 | 56 | 76 | 0.0 | 0.0 | 0.00 | 0.00 | 0.00 | 77 | 1005.7 |
| 20260505065107 | 56 | 76 | 0.0 | 0.0 | 0.00 | 0.00 | 0.00 | 76 | 1005.6 |
| 20260505064601 | 56 | 76 | 0.0 | 0.0 | 0.00 | 0.00 | 0.00 | 76 | 1005.6 |
| 20260505064054 | 57 | 76 | 0.0 | 0.0 | 0.00 | 0.00 | 0.00 | 76 | 1005.6 |
| 20260505063549 | 57 | 76 | 0.0 | 1.7 | 0.00 | 0.00 | 0.00 | 74 | 1005.5 |
| 20260505063043 | 58 | 76 | 0.9 | 1.7 | 0.00 | 0.00 | 0.00 | 73 | 1005.6 |
| 20260505062540 | 58 | 69 | 1.7 | 2.6 | 0.00 | 0.00 | 0.00 | 74 | 1005.6 |
| 20260505062039 | 58 | 94 | 0.9 | 2.6 | 0.00 | 0.00 | 0.00 | 74 | 1005.7 |
| 20260505062022 | 58 | 76 | 0.9 | 2.6 | 0.00 | 0.00 | 0.00 | 74 | 1005.6 |
| 20260505061043 | 58 | 76 | 0.9 | 2.6 | 0.00 | 0.00 | 0.00 | 73 | 1005.6 |
| 20260505060539 | 58 | 78 | 0.9 | 2.6 | 0.00 | 0.00 | 0.00 | 73 | 1005.6 |
| 20260505060256 | 58 | 84 | 0.9 | 2.6 | 0.00 | 0.00 | 0.00 | 73 | 1005.5 |
| 20260505055536 | 58 | 85 | 0.9 | 1.7 | 0.00 | 0.00 | 0.00 | 74 | 1005.4 |
| 20260505055036 | 58 | 88 | 0.9 | 1.7 | 0.00 | 0.00 | 0.00 | 73 | 1005.4 |
| 20260505054536 | 59 | 76 | 0.9 | 1.7 | 0.00 | 0.00 | 0.00 | 73 | 1005.3 |
| 20260505054253 | 59 | 106 | 0.9 | 1.7 | 0.00 | 0.00 | 0.00 | 73 | 1005.2 |
| 20260505053801 | 59 | 88 | 0.9 | 1.7 | 0.00 | 0.00 | 0.00 | 72 | 1005.3 |
| 20260505053035 | 59 | 64 | 0.0 | 1.7 | 0.00 | 0.00 | 0.00 | 72 | 1005.3 |
| 20260505052535 | 59 | 102 | 0.0 | 2.6 | 0.00 | 0.00 | 0.00 | 72 | 1005.3 |
| 20260505052033 | 60 | 111 | 0.9 | 2.6 | 0.00 | 0.00 | 0.00 | 72 | 1005.3 |
| 20260505051530 | 60 | 147 | 0.9 | 2.6 | 0.00 | 0.00 | 0.00 | 71 | 1005.3 |
| 20260505051030 | 60 | 93 | 0.9 | 2.6 | 0.00 | 0.00 | 0.00 | 71 | 1005.3 |
| 20260505050529 | 60 | 90 | 0.9 | 2.6 | 0.00 | 0.00 | 0.00 | 71 | 1005.3 |
| 20260505041440 | 63 | 140 | 0.9 | 2.6 | 0.00 | 0.00 | 0.00 | 68 | 1005.4 |
| 20260505040935 | 64 | 116 | 0.9 | 3.5 | 0.00 | 0.00 | 0.00 | 68 | 1005.3 |
| 20260505040428 | 64 | 87 | 0.9 | 3.5 | 0.00 | 0.00 | 0.00 | 67 | 1005.4 |
| 20260505035922 | 65 | 89 | 0.9 | 1.7 | 0.00 | 0.00 | 0.00 | 67 | 1005.3 |
| 20260505035416 | 65 | 101 | 0.9 | 5.2 | 0.00 | 0.00 | 0.00 | 65 | 1005.2 |
| 20260505034910 | 66 | 118 | 1.7 | 6.1 | 0.00 | 0.00 | 0.00 | 64 | 1005.2 |
| 20260505034627 | 66 | 85 | 1.7 | 6.1 | 0.00 | 0.00 | 0.00 | 64 | 1005.2 |
| 20260505033904 | 67 | 108 | 1.7 | 3.5 | 0.00 | 0.00 | 0.00 | 64 | 1005.0 |
| 20260505033403 | 68 | 137 | 0.9 | 3.5 | 0.00 | 0.00 | 0.00 | 63 | 1004.9 |
| 20260505032904 | 69 | 145 | 1.7 | 5.2 | 0.00 | 0.00 | 0.00 | 62 | 1004.8 |
| 20260505032403 | 69 | 112 | 2.6 | 7.0 | 0.00 | 0.00 | 0.00 | 60 | 1004.7 |
| 20260505031904 | 70 | 107 | 3.5 | 7.0 | 0.00 | 0.00 | 0.00 | 59 | 1004.6 |
| 20260505031404 | 70 | 91 | 3.5 | 5.2 | 0.00 | 0.00 | 0.00 | 58 | 1004.7 |
| 20260505030903 | 71 | 93 | 2.6 | 5.2 | 0.00 | 0.00 | 0.00 | 57 | 1004.6 |
| 20260505030403 | 71 | 81 | 1.7 | 5.2 | 0.00 | 0.00 | 0.00 | 59 | 1004.6 |
| 20260505025904 | 72 | 79 | 0.9 | 2.6 | 0.00 | 0.00 | 0.00 | 59 | 1004.5 |
| 20260505025405 | 73 | 97 | 0.9 | 1.7 | 0.00 | 0.00 | 0.00 | 58 | 1004.5 |
| 20260505024904 | 74 | 101 | 0.9 | 1.7 | 0.00 | 0.00 | 0.00 | 57 | 1004.4 |
| 20260505024401 | 75 | 128 | 0.9 | 1.7 | 0.00 | 0.00 | 0.00 | 56 | 1004.3 |
| 20260505023901 | 76 | 110 | 0.9 | 1.7 | 0.00 | 0.00 | 0.00 | 53 | 1004.4 |
| 20260505023632 | 77 | 100 | 0.9 | 2.6 | 0.00 | 0.00 | 0.00 | 51 | 1004.4 |
| 20260505023124 | 78 | 101 | 0.9 | 2.6 | 0.00 | 0.00 | 0.00 | 46 | 1004.4 |
| 20260505022400 | 79 | 129 | 0.9 | 1.7 | 0.00 | 0.00 | 0.00 | 45 | 1004.4 |
| 20260505021900 | 80 | 168 | 0.0 | 1.7 | 0.00 | 0.00 | 0.00 | 43 | 1004.4 |
| 20260505021359 | 81 | 157 | 0.9 | 2.6 | 0.00 | 0.00 | 0.00 | 41 | 1004.5 |
| 20260505020900 | 81 | 158 | 0.9 | 2.6 | 0.00 | 0.00 | 0.00 | 38 | 1004.4 |
| 20260505020400 | 82 | 171 | 0.9 | 3.5 | 0.00 | 0.00 | 0.00 | 36 | 1004.4 |
| 20260505020124 | 82 | 178 | 0.9 | 3.5 | 0.00 | 0.00 | 0.00 | 35 | 1004.5 |
| 20260505015356 | 82 | 197 | 0.9 | 2.6 | 0.00 | 0.00 | 0.00 | 35 | 1004.5 |
| 20260505014856 | 82 | 165 | 1.7 | 3.5 | 0.00 | 0.00 | 0.00 | 34 | 1004.5 |
| 20260505014356 | 82 | 189 | 1.7 | 3.5 | 0.00 | 0.00 | 0.00 | 36 | 1004.6 |
| 20260505013855 | 82 | 257 | 1.7 | 3.5 | 0.00 | 0.00 | 0.00 | 35 | 1004.7 |
| 20260505013355 | 82 | 218 | 1.7 | 3.5 | 0.00 | 0.00 | 0.00 | 35 | 1004.7 |
| 20260505012857 | 82 | 238 | 2.6 | 4.3 | 0.00 | 0.00 | 0.00 | 35 | 1004.7 |
| 20260505012355 | 83 | 220 | 2.6 | 4.3 | 0.00 | 0.00 | 0.00 | 33 | 1004.8 |
| 20260505011857 | 83 | 179 | 3.5 | 6.1 | 0.00 | 0.00 | 0.00 | 32 | 1004.8 |
| 20260505011356 | 83 | 191 | 2.6 | 6.1 | 0.00 | 0.00 | 0.00 | 33 | 1004.8 |
| 20260505010857 | 83 | 193 | 2.6 | 5.2 | 0.00 | 0.00 | 0.00 | 33 | 1004.9 |
| 20260505010615 | 84 | 205 | 2.6 | 4.3 | 0.00 | 0.00 | 0.00 | 33 | 1005.0 |
| 20260505005855 | 84 | 214 | 1.7 | 4.3 | 0.00 | 0.00 | 0.00 | 34 | 1005.0 |
| 20260505005355 | 84 | 185 | 2.6 | 4.3 | 0.00 | 0.00 | 0.00 | 33 | 1005.0 |
| 20260505004858 | 83 | 213 | 2.6 | 5.2 | 0.00 | 0.00 | 0.00 | 32 | 1005.0 |
| 20260505004357 | 85 | 220 | 1.7 | 5.2 | 0.00 | 0.00 | 0.00 | 31 | 1005.2 |
| 20260505003858 | 86 | 134 | 1.7 | 4.3 | 0.00 | 0.00 | 0.00 | 32 | 1005.0 |
| 20260505003356 | 86 | 129 | 1.7 | 3.5 | 0.00 | 0.00 | 0.00 | 32 | 1005.0 |
| 20260505002856 | 86 | 167 | 1.7 | 3.5 | 0.00 | 0.00 | 0.00 | 34 | 1005.0 |
| 20260505002355 | 86 | 100 | 1.7 | 4.3 | 0.00 | 0.00 | 0.00 | 31 | 1005.2 |
| 20260505001856 | 87 | 116 | 1.7 | 5.2 | 0.00 | 0.00 | 0.00 | 29 | 1005.3 |
| 20260505001356 | 87 | 145 | 1.7 | 5.2 | 0.00 | 0.00 | 0.00 | 31 | 1005.4 |
| 20260505000857 | 87 | 270 | 1.7 | 5.2 | 0.00 | 0.00 | 0.00 | 29 | 1005.3 |
| 20260505000355 | 88 | 108 | 2.6 | 5.2 | 0.00 | 0.00 | 0.00 | 30 | 1005.4 |
| 20260504235854 | 87 | 120 | 2.6 | 5.2 | 0.00 | 0.00 | 0.00 | 28 | 1005.4 |
| 20260504235351 | 87 | 74 | 2.6 | 7.8 | 0.00 | 0.00 | 0.00 | 28 | 1005.4 |
| 20260504234851 | 87 | 97 | 2.6 | 7.8 | 0.00 | 0.00 | 0.00 | 28 | 1005.4 |
| 20260504234353 | 87 | 137 | 2.6 | 6.1 | 0.00 | 0.00 | 0.00 | 28 | 1005.4 |
| 20260504233851 | 87 | 90 | 2.6 | 6.1 | 0.00 | 0.00 | 0.00 | 30 | 1005.4 |
| 20260504233614 | 86 | 168 | 1.7 | 6.1 | 0.00 | 0.00 | 0.00 | 28 | 1005.4 |
| 20260504232852 | 86 | 141 | 1.7 | 6.1 | 0.00 | 0.00 | 0.00 | 32 | 1005.5 |
| 20260504232348 | 85 | 260 | 1.7 | 6.1 | 0.00 | 0.00 | 0.00 | 32 | 1005.5 |
| 20260504232341 | 84 | 220 | 1.7 | 5.2 | 0.00 | 0.00 | 0.00 | 30 | 1005.4 |
| 20260504231334 | 85 | 189 | 2.6 | 4.3 | 0.00 | 0.00 | 0.00 | 29 | 1005.5 |
| 20260504231052 | 85 | 162 | 2.6 | 6.1 | 0.00 | 0.00 | 0.00 | 31 | 1005.5 |
| 20260504230321 | 86 | 226 | 2.6 | 6.1 | 0.00 | 0.00 | 0.00 | 31 | 1005.6 |
| 20260504225815 | 86 | 176 | 2.6 | 6.1 | 0.00 | 0.00 | 0.00 | 28 | 1005.7 |
| 20260504225534 | 85 | 171 | 2.6 | 6.1 | 0.00 | 0.00 | 0.00 | 28 | 1005.7 |
| 20260504224804 | 84 | 233 | 2.6 | 7.0 | 0.00 | 0.00 | 0.00 | 29 | 1005.7 |
| 20260504224257 | 84 | 286 | 1.7 | 7.0 | 0.00 | 0.00 | 0.00 | 28 | 1005.7 |
| 20260504223752 | 84 | 191 | 1.7 | 4.3 | 0.00 | 0.00 | 0.00 | 29 | 1005.9 |
| 20260504223245 | 83 | 340 | 1.7 | 5.2 | 0.00 | 0.00 | 0.00 | 29 | 1005.8 |
| 20260504222739 | 84 | 320 | 2.6 | 7.0 | 0.00 | 0.00 | 0.00 | 29 | 1005.9 |
| 20260504222455 | 86 | 305 | 3.5 | 7.0 | 0.00 | 0.00 | 0.00 | 26 | 1005.9 |
| 20260504221725 | 86 | 187 | 2.6 | 7.0 | 0.00 | 0.00 | 0.00 | 30 | 1005.9 |
| 20260504221220 | 85 | 164 | 1.7 | 3.5 | 0.00 | 0.00 | 0.00 | 29 | 1006.0 |
| 20260504220714 | 84 | 196 | 2.6 | 6.1 | 0.00 | 0.00 | 0.00 | 30 | 1006.1 |
| 20260504220208 | 85 | 224 | 2.6 | 6.1 | 0.00 | 0.00 | 0.00 | 29 | 1006.3 |
| 20260504215702 | 85 | 226 | 2.6 | 4.3 | 0.00 | 0.00 | 0.00 | 31 | 1006.3 |
| 20260504215156 | 84 | 219 | 2.6 | 4.3 | 0.00 | 0.00 | 0.00 | 29 | 1006.4 |
| 20260504214649 | 85 | 225 | 3.5 | 6.1 | 0.00 | 0.00 | 0.00 | 28 | 1006.5 |
| 20260504214144 | 85 | 184 | 2.6 | 6.1 | 0.00 | 0.00 | 0.00 | 33 | 1006.5 |
| 20260504213637 | 84 | 166 | 1.7 | 4.3 | 0.00 | 0.00 | 0.00 | 30 | 1006.6 |
| 20260504213132 | 83 | 190 | 2.6 | 5.2 | 0.00 | 0.00 | 0.00 | 30 | 1006.7 |
| 20260504212626 | 84 | 311 | 2.6 | 5.2 | 0.00 | 0.00 | 0.00 | 32 | 1006.7 |
| 20260504212119 | 84 | 212 | 2.6 | 5.2 | 0.00 | 0.00 | 0.00 | 31 | 1006.7 |
| 20260504211834 | 82 | 272 | 2.6 | 5.2 | 0.00 | 0.00 | 0.00 | 37 | 1006.7 |
| 20260504211327 | 82 | 251 | 2.6 | 7.8 | 0.00 | 0.00 | 0.00 | 31 | 1006.8 |
| 20260504210602 | 82 | 296 | 3.5 | 7.8 | 0.00 | 0.00 | 0.00 | 33 | 1006.8 |
| 20260504210055 | 82 | 289 | 2.6 | 5.2 | 0.00 | 0.00 | 0.00 | 37 | 1006.9 |
| 20260504205550 | 82 | 229 | 2.6 | 5.2 | 0.00 | 0.00 | 0.00 | 35 | 1006.9 |
| 20260504205303 | 83 | 171 | 2.6 | 6.1 | 0.00 | 0.00 | 0.00 | 37 | 1006.9 |
| 20260504204538 | 81 | 166 | 2.6 | 6.1 | 0.00 | 0.00 | 0.00 | 36 | 1007.0 |
| 20260504204257 | 81 | 251 | 2.6 | 7.0 | 0.00 | 0.00 | 0.00 | 36 | 1007.1 |
| 20260504203526 | 81 | 252 | 2.6 | 7.0 | 0.00 | 0.00 | 0.00 | 35 | 1007.1 |
| 20260504203019 | 82 | 220 | 2.6 | 7.0 | 0.00 | 0.00 | 0.00 | 37 | 1007.1 |
| 20260504202514 | 80 | 319 | 3.5 | 7.8 | 0.00 | 0.00 | 0.00 | 37 | 1007.2 |
| 20260504202008 | 80 | 303 | 3.5 | 7.8 | 0.00 | 0.00 | 0.00 | 37 | 1007.2 |
| 20260504201502 | 80 | 218 | 1.7 | 4.3 | 0.00 | 0.00 | 0.00 | 40 | 1007.2 |
| 20260504200956 | 81 | 267 | 2.6 | 5.2 | 0.00 | 0.00 | 0.00 | 38 | 1007.2 |
| 20260504200450 | 82 | 193 | 2.6 | 5.2 | 0.00 | 0.00 | 0.00 | 42 | 1007.2 |
| 20260504195944 | 81 | 209 | 2.6 | 5.2 | 0.00 | 0.00 | 0.00 | 39 | 1007.2 |
| 20260504195438 | 80 | 247 | 2.6 | 5.2 | 0.00 | 0.00 | 0.00 | 38 | 1007.3 |
| 20260504194932 | 79 | 184 | 2.6 | 7.0 | 0.00 | 0.00 | 0.00 | 43 | 1007.3 |
| 20260504194425 | 79 | 295 | 3.5 | 7.0 | 0.00 | 0.00 | 0.00 | 44 | 1007.4 |
| 20260504193920 | 80 | 239 | 2.6 | 7.0 | 0.00 | 0.00 | 0.00 | 44 | 1007.4 |
| 20260504193413 | 81 | 280 | 2.6 | 5.2 | 0.00 | 0.00 | 0.00 | 40 | 1007.3 |
| 20260504192907 | 80 | 208 | 2.6 | 5.2 | 0.00 | 0.00 | 0.00 | 44 | 1007.3 |
| 20260504192402 | 78 | 258 | 2.6 | 6.1 | 0.00 | 0.00 | 0.00 | 42 | 1007.4 |
| 20260504192118 | 80 | 187 | 2.6 | 6.1 | 0.00 | 0.00 | 0.00 | 43 | 1007.4 |
| 20260504191349 | 79 | 237 | 2.6 | 7.0 | 0.00 | 0.00 | 0.00 | 41 | 1007.5 |
| 20260504190844 | 78 | 293 | 2.6 | 7.0 | 0.00 | 0.00 | 0.00 | 45 | 1007.4 |
| 20260504190337 | 78 | 293 | 2.6 | 6.1 | 0.00 | 0.00 | 0.00 | 42 | 1007.5 |
| 20260504185831 | 77 | 307 | 2.6 | 6.1 | 0.00 | 0.00 | 0.00 | 42 | 1007.5 |
| 20260504185326 | 78 | 228 | 2.6 | 7.0 | 0.00 | 0.00 | 0.00 | 40 | 1007.5 |
| 20260504184826 | 77 | 193 | 2.6 | 7.0 | 0.00 | 0.00 | 0.00 | 44 | 1007.6 |
| 20260504184551 | 77 | 286 | 2.6 | 7.0 | 0.00 | 0.00 | 0.00 | 39 | 1007.5 |
| 20260504183827 | 77 | 320 | 3.5 | 7.0 | 0.00 | 0.00 | 0.00 | 41 | 1007.5 |
| 20260504183326 | 77 | 213 | 2.6 | 7.0 | 0.00 | 0.00 | 0.00 | 39 | 1007.6 |
| 20260504182825 | 77 | 330 | 2.6 | 5.2 | 0.00 | 0.00 | 0.00 | 38 | 1007.6 |
| 20260504182323 | 77 | 222 | 2.6 | 6.1 | 0.00 | 0.00 | 0.00 | 39 | 1007.7 |
| 20260504181820 | 77 | 247 | 2.6 | 6.1 | 0.00 | 0.00 | 0.00 | 40 | 1007.7 |
| 20260504181320 | 76 | 283 | 2.6 | 7.0 | 0.00 | 0.00 | 0.00 | 42 | 1007.7 |
| 20260504180822 | 76 | 215 | 2.6 | 7.0 | 0.00 | 0.00 | 0.00 | 38 | 1007.9 |
| 20260504180548 | 76 | 313 | 2.6 | 7.0 | 0.00 | 0.00 | 0.00 | 39 | 1007.8 |
| 20260504175821 | 74 | 209 | 2.6 | 7.0 | 0.00 | 0.00 | 0.00 | 40 | 1007.9 |
| 20260504175321 | 74 | 308 | 2.6 | 7.0 | 0.00 | 0.00 | 0.00 | 39 | 1007.9 |
| 20260504174822 | 74 | 222 | 2.6 | 6.1 | 0.00 | 0.00 | 0.00 | 40 | 1007.9 |
| 20260504174318 | 74 | 195 | 1.7 | 6.1 | 0.00 | 0.00 | 0.00 | 44 | 1008.0 |
| 20260504173819 | 74 | 248 | 2.6 | 6.1 | 0.00 | 0.00 | 0.00 | 44 | 1007.9 |
| 20260504173319 | 74 | 205 | 3.5 | 7.8 | 0.00 | 0.00 | 0.00 | 46 | 1007.9 |
| 20260504172819 | 74 | 304 | 3.5 | 7.8 | 0.00 | 0.00 | 0.00 | 43 | 1007.9 |
| 20260504172319 | 73 | 211 | 3.5 | 7.0 | 0.00 | 0.00 | 0.00 | 45 | 1007.9 |
| 20260504172044 | 73 | 222 | 3.5 | 6.1 | 0.00 | 0.00 | 0.00 | 44 | 1007.9 |
| 20260504171318 | 73 | 222 | 3.5 | 6.1 | 0.00 | 0.00 | 0.00 | 44 | 1007.9 |
| 20260504170818 | 73 | 274 | 3.5 | 6.1 | 0.00 | 0.00 | 0.00 | 42 | 1007.9 |
| 20260504170320 | 73 | 236 | 2.6 | 6.1 | 0.00 | 0.00 | 0.00 | 45 | 1008.0 |
| 20260504160316 | 70 | 185 | 0.9 | 3.5 | 0.00 | 0.00 | 0.00 | 50 | 1007.9 |
| 20260504150816 | 64 | 358 | 0.0 | 1.7 | 0.00 | 0.00 | 0.00 | 58 | 1007.7 |
| 20260504150315 | 63 | 33 | 0.9 | 1.7 | 0.00 | 0.00 | 0.00 | 62 | 1007.7 |
| 20260504141304 | 54 | 56 | 0.9 | 1.7 | 0.00 | 0.00 | 0.00 | 79 | 1007.5 |
| 20260504140802 | 53 | 54 | 0.9 | 2.6 | 0.00 | 0.00 | 0.00 | 80 | 1007.4 |
| 20260504140303 | 53 | 46 | 0.9 | 2.6 | 0.00 | 0.00 | 0.00 | 81 | 1007.4 |
| 20260504130758 | 49 | 335 | 0.9 | 1.7 | 0.00 | 0.00 | 0.00 | 81 | 1006.8 |
| 20260504130258 | 49 | 335 | 0.0 | 0.9 | 0.00 | 0.00 | 0.00 | 81 | 1006.8 |
| 20260504120230 | 49 | 85 | 1.7 | 2.6 | 0.00 | 0.00 | 0.00 | 80 | 1007.1 |
| 20260504110213 | 50 | 81 | 0.9 | 2.6 | 0.00 | 0.00 | 0.00 | 79 | 1007.3 |
| 20260504100330 | 49 | 85 | 0.9 | 2.6 | 0.00 | 0.00 | 0.00 | 80 | 1007.5 |